FW6665 Weather Reports


time (UTC)temp
F
wind
direction
speed
knots
gust
knots
rain 1hr
in
rain 24hr
in
rain mn
in
humidity
%
barometer
mb
20260831220204 65 248 1.7 4.3 0.00 0.00 0.00 66 1015.9
20260831215705 65 223 1.7 4.3 0.00 0.00 0.00 66 1015.9
20260831215204 65 219 1.7 6.1 0.00 0.00 0.00 66 1015.9
20260831214704 65 203 1.7 6.1 0.00 0.00 0.00 65 1015.9
20260831214204 65 234 1.7 9.6 0.00 0.00 0.00 65 1015.8
20260831213704 65 240 2.6 9.6 0.00 0.00 0.00 65 1015.7
20260831212205 65 250 4.3 6.1 0.00 0.00 0.00 65 1015.7
20260831211205 65 241 1.7 3.5 0.00 0.00 0.00 67 1015.6
20260831210704 65 240 1.7 3.5 0.00 0.00 0.00 67 1015.6
20260831210205 66 241 0.9 4.3 0.00 0.02 0.00 67 1015.5
20260831205704 66 240 0.9 4.3 0.00 0.04 0.00 67 1015.3
20260831205204 66 240 0.9 6.1 0.00 0.04 0.00 66 1015.3
20260831204705 66 240 0.9 6.1 0.00 0.04 0.00 66 1015.2
20260831204204 66 237 1.7 7.8 0.00 0.04 0.00 65 1015.1
20260831203704 66 259 1.7 7.8 0.00 0.04 0.00 65 1015.0
20260831202706 67 233 2.6 5.2 0.00 0.04 0.00 65 1014.9
20260831202204 67 250 2.6 5.2 0.00 0.04 0.00 65 1014.8
20260831201704 67 233 1.7 5.2 0.00 0.04 0.00 65 1014.7
20260831201204 67 228 2.6 5.2 0.00 0.04 0.00 64 1014.7
20260831200706 67 241 1.7 5.2 0.00 0.04 0.00 64 1014.7
20260831200204 67 235 2.6 7.8 0.00 0.04 0.00 64 1014.5
20260831195703 67 213 1.7 7.8 0.00 0.04 0.00 64 1014.5
20260831195204 68 235 3.5 7.8 0.00 0.04 0.00 64 1014.5
20260831194704 68 237 1.7 7.8 0.00 0.04 0.00 64 1014.4
20260831194205 68 237 2.6 9.6 0.00 0.04 0.00 63 1014.2
20260831193709 68 251 3.5 9.6 0.00 0.04 0.00 63 1014.3
20260831192704 69 228 3.5 10.4 0.00 0.04 0.00 63 1014.2
20260831191704 69 259 3.5 8.7 0.00 0.04 0.00 63 1013.9
20260831191204 69 238 4.3 9.6 0.00 0.04 0.00 63 1013.9
20260831190704 69 285 2.6 9.6 0.00 0.04 0.00 63 1013.9
20260831185703 69 244 3.5 10.4 0.00 0.04 0.00 63 1013.7
20260831185205 69 243 1.7 10.4 0.00 0.04 0.00 63 1013.7
20260831184704 69 233 4.3 10.4 0.00 0.04 0.00 63 1013.7
20260831184204 70 228 4.3 11.3 0.00 0.04 0.00 63 1013.6
20260831183704 70 235 3.5 11.3 0.00 0.04 0.00 62 1013.5
20260831183204 70 231 4.3 11.3 0.00 0.04 0.00 62 1013.5
20260831182704 70 230 2.6 11.3 0.00 0.04 0.00 63 1013.4
20260831182204 70 216 3.5 4.3 0.00 0.04 0.00 65 1013.2
20260831181704 70 238 1.7 4.3 0.00 0.04 0.00 65 1013.1
20260831181205 70 238 1.7 4.3 0.00 0.04 0.00 64 1013.1
20260831180705 70 240 1.7 4.3 0.00 0.04 0.00 64 1013.0
20260831180204 70 238 0.9 5.2 0.00 0.04 0.00 64 1012.9
20260831174704 70 241 1.7 4.3 0.00 0.04 0.00 64 1012.7
20260831174203 70 237 0.9 4.3 0.00 0.04 0.00 64 1012.7
20260831173714 70 237 1.7 4.3 0.00 0.04 0.00 64 1012.7
20260831173204 70 237 1.7 3.5 0.00 0.04 0.00 64 1012.6
20260831172704 70 237 1.7 3.5 0.00 0.04 0.00 64 1012.6
20260831172204 70 237 1.7 3.5 0.00 0.04 0.00 64 1012.6
20260831171704 70 237 1.7 5.2 0.00 0.04 0.00 64 1012.5
20260831171228 70 237 0.9 5.2 0.00 0.04 0.00 65 1012.4
20260831170704 70 237 0.0 5.2 0.00 0.04 0.00 65 1012.4
20260831170204 70 247 1.7 4.3 0.00 0.04 0.00 65 1012.3
20260831165203 70 255 1.7 5.2 0.00 0.04 0.00 65 1012.2
20260831164704 70 255 1.7 5.2 0.00 0.04 0.00 65 1012.2
20260831163705 71 268 1.7 5.2 0.00 0.04 0.00 64 1012.1
20260831162705 71 217 1.7 6.1 0.00 0.04 0.00 66 1012.0
20260831162204 70 283 1.7 6.1 0.00 0.04 0.00 67 1012.1
20260831161705 70 254 0.9 6.1 0.00 0.04 0.00 66 1012.0
20260831160705 70 247 2.6 6.1 0.00 0.04 0.00 65 1012.0
20260831160207 70 286 3.5 7.8 0.00 0.04 0.00 65 1012.0
20260831155705 70 255 1.7 7.8 0.00 0.04 0.00 65 1011.9
20260831155204 70 228 0.9 5.2 0.00 0.04 0.00 66 1011.7
20260831154704 70 240 1.7 5.2 0.00 0.04 0.00 67 1011.7
20260831154204 70 233 1.7 5.2 0.00 0.04 0.00 67 1011.6
20260831153205 70 228 1.7 7.8 0.00 0.04 0.00 67 1011.6
20260831152707 70 240 1.7 7.8 0.00 0.04 0.00 67 1011.6
20260831152203 70 285 0.9 7.8 0.00 0.04 0.00 67 1011.5
20260831151704 70 259 0.9 7.8 0.00 0.04 0.00 65 1011.4
20260831151204 71 265 1.7 13.0 0.00 0.04 0.00 64 1011.3
20260831144704 74 214 5.2 13.9 0.00 0.04 0.00 54 1011.1
20260831144205 73 234 3.5 13.0 0.00 0.04 0.00 55 1011.0
20260831142704 72 245 4.3 11.3 0.00 0.04 0.00 57 1010.9
20260831142207 72 286 4.3 10.4 0.00 0.04 0.00 56 1010.8
20260831141704 73 251 3.5 10.4 0.00 0.04 0.00 58 1010.8
20260831141205 73 224 4.3 10.4 0.00 0.04 0.00 56 1010.7
20260831140704 74 188 2.6 10.4 0.00 0.04 0.00 56 1010.7
20260831140204 73 290 2.6 12.2 0.00 0.04 0.00 56 1010.5
20260831135709 73 228 2.6 12.2 0.00 0.04 0.00 58 1010.6
20260831135203 73 207 7.0 10.4 0.00 0.04 0.00 56 1010.7
20260831134704 72 257 5.2 10.4 0.00 0.04 0.00 58 1010.6
20260831134205 72 251 4.3 9.6 0.00 0.04 0.00 60 1010.6
20260831132704 71 244 4.3 11.3 0.00 0.04 0.00 62 1010.4
20260831132208 70 190 3.5 11.3 0.00 0.04 0.00 63 1010.3
20260831131705 70 250 2.6 11.3 0.00 0.04 0.00 62 1010.1
20260831131207 70 275 5.2 10.4 0.00 0.04 0.00 62 1010.2
20260831130707 71 279 4.3 10.4 0.00 0.04 0.00 62 1010.1
20260831125704 71 251 5.2 12.2 0.00 0.04 0.00 60 1009.9
20260831125208 71 252 2.6 12.2 0.00 0.04 0.00 60 1009.8
20260831124705 71 257 2.6 12.2 0.00 0.04 0.00 60 1009.8
20260831124208 71 247 4.3 7.8 0.00 0.04 0.00 61 1009.8
20260831123804 71 251 3.5 7.8 0.00 0.04 0.00 60 1009.7
20260831123204 71 303 2.6 10.4 0.00 0.04 0.00 60 1009.5
20260831122204 71 197 3.5 13.9 0.00 0.04 0.00 61 1009.5
20260831121733 71 233 3.5 13.9 0.00 0.04 0.00 60 1009.5
20260831121203 71 247 2.6 13.9 0.00 0.04 0.00 60 1009.2
20260831120704 71 252 5.2 13.9 0.00 0.04 0.00 59 1009.3
20260831120204 71 212 4.3 12.2 0.00 0.04 0.00 60 1009.2
20260831115706 70 234 3.5 12.2 0.00 0.04 0.00 63 1009.2
20260831115205 69 200 2.6 11.3 0.00 0.04 0.00 63 1009.2
20260831114704 70 204 6.1 11.3 0.00 0.04 0.00 61 1009.1
20260831114204 70 268 3.5 10.4 0.00 0.04 0.00 62 1009.1
20260831113732 69 231 1.7 10.4 0.00 0.04 0.00 64 1008.9
20260831113204 69 247 3.5 11.3 0.00 0.04 0.00 62 1009.0
20260831112203 70 261 5.2 9.6 0.00 0.04 0.00 63 1008.8
20260831111714 69 240 5.2 7.8 0.00 0.04 0.00 64 1008.7
20260831110703 69 248 1.7 8.7 0.00 0.04 0.00 64 1008.7
20260831105204 69 255 3.5 9.6 0.00 0.04 0.00 66 1008.5
20260831104704 68 243 3.5 9.6 0.00 0.04 0.00 68 1008.4
20260831103703 69 252 3.5 9.6 0.00 0.04 0.00 67 1008.2
20260831103204 69 186 3.5 9.6 0.00 0.04 0.00 68 1008.3
20260831102704 68 245 2.6 9.6 0.00 0.04 0.00 70 1008.2
20260831102203 67 185 1.7 9.6 0.00 0.04 0.00 71 1008.1
20260831101704 67 209 1.7 9.6 0.00 0.04 0.00 71 1008.1
20260831101204 67 247 2.6 10.4 0.00 0.04 0.00 71 1008.0
20260831100704 67 193 2.6 10.4 0.00 0.04 0.00 73 1008.0
20260831100204 66 238 2.6 8.7 0.00 0.04 0.00 74 1008.0
20260831095704 65 228 3.5 8.7 0.00 0.04 0.00 74 1007.9
20260831095204 65 241 3.5 11.3 0.00 0.04 0.00 73 1007.9
20260831094204 65 240 1.7 11.3 0.00 0.04 0.00 74 1007.7
20260831093707 65 231 2.6 11.3 0.00 0.04 0.00 74 1007.8
20260831093204 65 245 3.5 12.2 0.00 0.04 0.00 75 1007.6
20260831091706 65 261 3.5 9.6 0.00 0.04 0.00 74 1007.4
20260831091204 65 237 3.5 12.2 0.00 0.04 0.00 74 1007.4
20260831090705 65 230 2.6 12.2 0.00 0.04 0.00 75 1007.1
20260831090204 64 247 3.5 10.4 0.00 0.04 0.00 75 1007.1
20260831085704 64 237 5.2 10.4 0.00 0.04 0.00 75 1007.1
20260831085226 64 259 4.3 10.4 0.00 0.04 0.00 76 1007.0
20260831084230 64 237 3.5 10.4 0.00 0.04 0.00 76 1006.9
20260831083704 64 243 1.7 10.4 0.00 0.04 0.00 76 1006.7
20260831083204 63 235 2.6 7.8 0.00 0.04 0.00 77 1006.7
20260831082703 63 243 2.6 7.8 0.00 0.04 0.00 77 1006.6
20260831082204 62 247 2.6 8.7 0.00 0.04 0.00 77 1006.5
20260831081703 62 252 3.5 8.7 0.00 0.04 0.00 78 1006.5
20260831080704 62 247 3.5 8.7 0.00 0.04 0.00 78 1006.4
20260831080205 62 199 2.6 12.2 0.00 0.04 0.00 78 1006.4
20260831075704 62 230 2.6 12.2 0.00 0.04 0.00 78 1006.3
20260831075205 61 264 3.5 12.2 0.00 0.04 0.00 78 1006.2
20260831074704 61 200 4.3 12.2 0.00 0.04 0.00 78 1006.2
20260831073704 60 207 5.2 6.1 0.00 0.04 0.00 78 1005.9
20260831073205 60 226 1.7 10.4 0.00 0.04 0.00 78 1005.8
20260831072704 60 238 3.5 10.4 0.00 0.04 0.00 78 1005.8
20260831072204 60 186 1.7 6.1 0.00 0.04 0.00 78 1005.7
20260831071705 60 238 2.6 6.1 0.00 0.04 0.00 78 1005.7
20260831071204 59 161 3.5 8.7 0.00 0.04 0.00 77 1005.6
20260831070203 59 230 3.5 9.6 0.00 0.04 0.00 77 1005.5
20260831065704 59 204 1.7 9.6 0.00 0.04 0.00 77 1005.5
20260831065206 59 220 2.6 7.8 0.00 0.04 0.00 77 1005.4
20260831064705 59 248 2.6 7.8 0.00 0.04 0.00 77 1005.4
20260831063704 59 245 2.6 6.1 0.00 0.04 0.00 77 1005.3
20260831063204 59 235 1.7 8.7 0.00 0.04 0.00 77 1005.1
20260831062706 59 234 2.6 8.7 0.00 0.04 0.00 77 1005.1
20260831062205 58 209 1.7 8.7 0.00 0.04 0.00 77 1005.1
20260831061704 58 216 1.7 8.7 0.00 0.04 0.00 77 1004.9
20260831060704 58 189 1.7 5.2 0.00 0.04 0.00 76 1004.7
20260831055704 58 259 1.7 8.7 0.00 0.04 0.00 76 1004.6
20260831055204 58 206 1.7 5.2 0.00 0.04 0.00 76 1004.6
20260831054703 58 257 1.7 5.2 0.00 0.04 0.00 76 1004.4
20260831054204 58 176 0.9 8.7 0.00 0.04 0.00 77 1004.4
20260831053704 58 209 0.9 8.7 0.00 0.04 0.00 77 1004.2
20260831053204 58 244 1.7 7.8 0.00 0.04 0.00 77 1004.2
20260831052704 58 264 1.7 7.8 0.00 0.04 0.00 77 1004.1
20260831052204 58 243 1.7 7.8 0.00 0.04 0.00 77 1004.2
20260831051704 58 247 2.6 7.8 0.00 0.04 0.00 76 1004.2
20260831051204 58 233 1.7 7.8 0.00 0.04 0.00 76 1004.1
20260831050704 58 186 1.7 5.2 0.00 0.04 0.00 76 1004.0
20260831050204 59 265 0.9 5.2 0.00 0.04 0.00 76 1003.8
20260831045704 59 188 1.7 5.2 0.00 0.04 0.00 77 1003.8
20260831044704 59 226 0.9 4.3 0.00 0.04 0.00 77 1003.6
20260831044203 59 178 1.7 4.3 0.00 0.04 0.00 77 1003.6
20260831043706 59 185 0.9 6.1 0.00 0.04 0.00 77 1003.5
20260831042704 59 244 1.7 6.1 0.00 0.04 0.00 77 1003.5
20260831042208 59 251 1.7 6.1 0.00 0.04 0.00 77 1003.5
20260831041704 59 238 0.9 4.3 0.00 0.04 0.00 77 1003.5
20260831041204 59 235 0.9 4.3 0.00 0.04 0.00 77 1003.4
20260831040704 60 195 0.9 5.2 0.00 0.04 0.00 77 1003.4
20260831040206 60 199 1.7 5.2 0.00 0.04 0.00 77 1003.4
20260831035204 60 257 1.7 7.8 0.00 0.04 0.00 77 1003.3
20260831034704 60 247 1.7 7.8 0.00 0.04 0.00 77 1003.4
20260831034203 60 241 1.7 7.8 0.00 0.04 0.00 77 1003.3
20260831033204 60 193 1.7 9.6 0.00 0.04 0.00 77 1003.3
20260831032204 61 158 0.9 9.6 0.00 0.04 0.00 77 1003.1
20260831031203 61 233 2.6 6.1 0.00 0.04 0.00 76 1003.1
20260831030704 61 221 1.7 6.1 0.00 0.04 0.00 76 1003.1
20260831030204 61 245 1.7 6.1 0.00 0.04 0.00 75 1003.1
20260831025705 61 213 1.7 6.1 0.00 0.04 0.00 75 1003.0
20260831025204 61 244 0.0 5.2 0.00 0.04 0.00 75 1002.9
20260831024704 61 180 0.9 5.2 0.00 0.04 0.00 75 1002.9
20260831023704 61 176 1.7 5.2 0.00 0.04 0.00 74 1002.8
20260831023203 61 172 1.7 6.1 0.00 0.04 0.00 74 1002.7
20260831022704 61 144 0.9 6.1 0.00 0.04 0.00 74 1002.6
20260831022204 61 248 1.7 9.6 0.00 0.04 0.00 73 1002.5
20260831021705 61 200 0.0 9.6 0.00 0.04 0.00 73 1002.5
20260831021204 61 168 0.9 4.3 0.00 0.04 0.00 73 1002.4
20260831015704 61 188 0.9 4.3 0.00 0.04 0.00 73 1002.5
20260831015209 61 179 0.9 5.2 0.00 0.04 0.00 73 1002.5
20260831014706 61 172 0.9 5.2 0.00 0.04 0.00 73 1002.4
20260831014207 61 182 0.0 5.2 0.00 0.04 0.00 73 1002.6
20260831013704 61 180 0.9 5.2 0.00 0.04 0.00 73 1002.6
20260831013204 61 104 0.9 5.2 0.00 0.04 0.00 73 1002.6
20260831012204 61 180 0.9 5.2 0.00 0.04 0.00 74 1002.7
20260831011704 62 182 0.9 5.2 0.00 0.04 0.00 74 1002.8
20260831011205 62 179 1.7 5.2 0.00 0.04 0.00 74 1002.8
20260831010710 62 155 1.7 4.3 0.00 0.04 0.00 74 1002.9
20260831010204 62 214 1.7 6.1 0.00 0.04 0.00 75 1002.9
20260831005704 62 216 1.7 6.1 0.00 0.04 0.00 75 1003.1
20260831005204 62 162 0.9 6.1 0.00 0.04 0.00 74 1003.0
20260831004704 62 71 1.7 6.1 0.00 0.04 0.00 74 1003.0
20260831004209 62 179 0.9 3.5 0.00 0.04 0.00 74 1002.9
20260831003704 62 168 0.9 3.5 0.00 0.04 0.00 74 1003.0
20260831003207 61 176 0.0 5.2 0.00 0.04 0.00 74 1002.9
20260831002705 61 186 0.9 5.2 0.00 0.04 0.00 74 1003.0
20260831002207 61 175 0.9 4.3 0.00 0.04 0.00 74 1003.0
20260831001209 61 180 0.0 3.5 0.00 0.04 0.00 74 1003.3
20260831000704 61 171 0.9 3.5 0.00 0.04 0.00 74 1003.5
20260831000205 61 165 0.0 6.1 0.00 0.04 0.00 74 1003.5
20260830235704 61 165 0.0 6.1 0.00 0.04 0.00 74 1003.5
20260830234705 61 165 0.0 6.1 0.00 0.04 0.00 74 1003.5
20260830234204 61 165 0.9 2.6 0.00 0.04 0.00 74 1003.7
20260830233704 61 157 0.0 2.6 0.00 0.04 0.00 74 1003.7
20260830232704 61 168 0.0 2.6 0.00 0.04 0.00 75 1003.7
20260830232203 61 165 0.9 2.6 0.00 0.04 0.00 75 1003.7
20260830231204 61 171 0.9 3.5 0.00 0.04 0.00 75 1003.8
20260830230228 61 178 0.9 5.2 0.00 0.04 0.04 75 1004.0
20260830225708 62 180 0.0 5.2 0.00 0.04 0.04 75 1004.1
20260830225204 62 179 0.9 6.1 0.00 0.04 0.04 75 1004.2
20260830224704 62 180 0.9 6.1 0.00 0.04 0.04 75 1004.1
20260830224204 61 188 1.7 6.1 0.00 0.04 0.04 75 1004.2
20260830223704 61 190 0.9 6.1 0.00 0.04 0.04 75 1004.3
20260830223204 61 209 0.9 7.8 0.00 0.04 0.04 76 1004.3
20260830222205 62 179 0.9 7.8 0.00 0.04 0.04 76 1004.3
20260830221705 62 159 0.9 7.8 0.00 0.04 0.04 75 1004.3
20260830221205 62 162 1.7 4.3 0.00 0.04 0.04 75 1004.4
20260830220704 62 186 0.9 4.3 0.00 0.04 0.04 75 1004.3